Time,TemperatureF,DewpointF,PressureIn,WindDirection,WindDirectionDegrees,WindSpeedMPH,WindSpeedGustMPH,Humidity,HourlyPrecipIn,Conditions,Clouds,dailyrainin,SolarRadiationWatts/m^2,SoftwareType,DateUTC
2013-06-11 00:02:00,80.0,76.8,30.09,ESE,115,3.0,3.0,90,0.00,,,0.00,0,Wunderground v.1.15,2013-06-11 04:02:00,
2013-06-11 00:04:00,80.0,76.8,30.09,SE,127,3.0,3.0,90,0.00,,,0.00,0,Wunderground v.1.15,2013-06-11 04:04:00,
2013-06-11 00:10:00,80.0,76.8,30.09,SE,133,4.0,4.0,90,0.00,,,0.00,0,Wunderground v.1.15,2013-06-11 04:10:00,
2013-06-11 00:16:00,80.0,76.8,30.09,SE,128,3.0,11.0,90,0.00,,,0.00,0,Wunderground v.1.15,2013-06-11 04:16:00,
2013-06-11 00:18:00,80.0,76.8,30.09,SE,140,4.0,11.0,90,0.00,,,0.00,0,Wunderground v.1.15,2013-06-11 04:18:00,
2013-06-11 00:20:00,80.0,76.8,30.09,SSE,149,3.0,3.0,90,0.00,,,0.00,0,Wunderground v.1.15,2013-06-11 04:20:00,
2013-06-11 00:26:00,80.0,76.8,30.10,SE,128,3.0,3.0,90,0.00,,,0.00,0,Wunderground v.1.15,2013-06-11 04:26:00,
2013-06-11 00:32:00,79.9,76.7,30.10,SE,138,2.0,7.0,90,0.00,,,0.00,0,Wunderground v.1.15,2013-06-11 04:32:00,
2013-06-11 00:38:00,79.9,77.0,30.09,SE,138,2.0,7.0,91,0.00,,,0.00,0,Wunderground v.1.15,2013-06-11 04:38:00,
2013-06-11 00:44:00,79.9,77.0,30.09,SE,142,1.0,9.0,91,0.00,,,0.00,0,Wunderground v.1.15,2013-06-11 04:44:00,
2013-06-11 00:50:00,79.9,77.0,30.09,SSE,153,2.0,2.0,91,0.00,,,0.00,0,Wunderground v.1.15,2013-06-11 04:50:00,
2013-06-11 00:56:00,79.9,77.0,30.09,ESE,116,3.0,4.0,91,0.00,,,0.00,0,Wunderground v.1.15,2013-06-11 04:56:00,
2013-06-11 01:02:00,79.8,76.9,30.09,SE,137,4.0,4.0,91,0.00,,,0.00,0,Wunderground v.1.15,2013-06-11 05:02:00,
2013-06-11 01:08:00,79.9,77.0,30.09,SE,132,3.0,4.0,91,0.00,,,0.00,0,Wunderground v.1.15,2013-06-11 05:08:00,
2013-06-11 01:14:00,79.8,76.9,30.09,SE,141,1.0,3.0,91,0.00,,,0.00,0,Wunderground v.1.15,2013-06-11 05:14:00,
2013-06-11 01:20:00,79.9,77.0,30.09,SSE,148,2.0,2.0,91,0.00,,,0.00,0,Wunderground v.1.15,2013-06-11 05:20:00,
2013-06-11 01:26:00,79.8,76.9,30.09,SSE,150,1.0,2.0,91,0.00,,,0.00,0,Wunderground v.1.15,2013-06-11 05:26:00,
2013-06-11 01:32:00,79.8,76.9,30.09,SSE,150,1.0,1.0,91,0.00,,,0.00,0,Wunderground v.1.15,2013-06-11 05:32:00,
2013-06-11 01:38:00,79.8,76.9,30.09,SE,146,1.0,5.0,91,0.00,,,0.00,0,Wunderground v.1.15,2013-06-11 05:38:00,
2013-06-11 01:44:00,79.8,76.9,30.08,SSE,147,2.0,2.0,91,0.00,,,0.00,0,Wunderground v.1.15,2013-06-11 05:44:00,
2013-06-11 01:50:00,79.8,76.9,30.08,SSE,147,1.0,1.0,91,0.00,,,0.00,0,Wunderground v.1.15,2013-06-11 05:50:00,
2013-06-11 01:56:00,79.7,76.8,30.08,SE,143,1.0,4.0,91,0.00,,,0.00,0,Wunderground v.1.15,2013-06-11 05:56:00,
2013-06-11 02:02:00,79.6,77.1,30.08,SE,144,1.0,1.0,92,0.00,,,0.00,0,Wunderground v.1.15,2013-06-11 06:02:00,
2013-06-11 02:08:00,79.6,77.1,30.08,SSE,147,0.0,5.0,92,0.00,,,0.00,0,Wunderground v.1.15,2013-06-11 06:08:00,
2013-06-11 02:14:00,79.5,77.0,30.08,SSE,150,1.0,5.0,92,0.00,,,0.00,0,Wunderground v.1.15,2013-06-11 06:14:00,
2013-06-11 02:20:00,79.5,77.0,30.07,SE,138,2.0,2.0,92,0.00,,,0.00,0,Wunderground v.1.15,2013-06-11 06:20:00,
2013-06-11 02:26:00,79.4,76.9,30.07,South,169,2.0,9.0,92,0.00,,,0.00,0,Wunderground v.1.15,2013-06-11 06:26:00,
2013-06-11 02:32:00,79.5,77.0,30.07,SSE,149,3.0,7.0,92,0.00,,,0.00,0,Wunderground v.1.15,2013-06-11 06:32:00,
2013-06-11 02:38:00,79.5,77.0,30.07,South,170,2.0,7.0,92,0.00,,,0.00,0,Wunderground v.1.15,2013-06-11 06:38:00,
2013-06-11 02:44:00,79.6,77.1,30.07,SSE,162,1.0,2.0,92,0.00,,,0.00,0,Wunderground v.1.15,2013-06-11 06:44:00,
2013-06-11 02:50:00,79.5,77.0,30.07,SSE,151,1.0,1.0,92,0.00,,,0.00,0,Wunderground v.1.15,2013-06-11 06:50:00,
2013-06-11 02:56:00,79.6,77.1,30.06,SE,146,2.0,5.0,92,0.00,,,0.00,0,Wunderground v.1.15,2013-06-11 06:56:00,
2013-06-11 03:02:00,79.6,77.1,30.06,SE,142,2.0,4.0,92,0.00,,,0.00,0,Wunderground v.1.15,2013-06-11 07:02:00,
2013-06-11 03:08:00,79.6,77.1,30.06,South,173,2.0,5.0,92,0.00,,,0.00,0,Wunderground v.1.15,2013-06-11 07:08:00,
2013-06-11 03:14:00,79.6,77.1,30.06,SSE,153,2.0,3.0,92,0.00,,,0.00,0,Wunderground v.1.15,2013-06-11 07:14:00,
2013-06-11 03:20:00,79.6,77.1,30.06,SSE,157,1.0,1.0,92,0.00,,,0.00,0,Wunderground v.1.15,2013-06-11 07:20:00,
2013-06-11 03:26:00,79.6,77.4,30.06,SSE,165,1.0,3.0,93,0.00,,,0.00,0,Wunderground v.1.15,2013-06-11 07:26:00,
2013-06-11 03:32:00,79.6,77.4,30.06,SE,144,1.0,1.0,93,0.00,,,0.00,0,Wunderground v.1.15,2013-06-11 07:32:00,
2013-06-11 03:38:00,79.7,77.5,30.06,SE,144,1.0,1.0,93,0.00,,,0.00,0,Wunderground v.1.15,2013-06-11 07:38:00,
2013-06-11 03:44:00,79.7,77.5,30.06,SSE,148,1.0,2.0,93,0.00,,,0.00,0,Wunderground v.1.15,2013-06-11 07:44:00,
2013-06-11 03:50:00,79.7,77.5,30.06,SE,146,0.0,0.0,93,0.00,,,0.00,0,Wunderground v.1.15,2013-06-11 07:50:00,
2013-06-11 03:56:00,79.7,77.5,30.06,SE,146,0.0,0.0,93,0.00,,,0.00,0,Wunderground v.1.15,2013-06-11 07:56:00,
2013-06-11 04:02:00,79.8,77.6,30.06,SE,146,0.0,0.0,93,0.00,,,0.00,0,Wunderground v.1.15,2013-06-11 08:02:00,
2013-06-11 04:08:00,79.8,77.6,30.06,SSE,154,0.0,2.0,93,0.00,,,0.00,0,Wunderground v.1.15,2013-06-11 08:08:00,
2013-06-11 04:14:00,79.8,77.6,30.06,SSE,154,0.0,0.0,93,0.00,,,0.00,0,Wunderground v.1.15,2013-06-11 08:14:00,
2013-06-11 04:20:00,79.7,77.5,30.06,SSE,157,0.0,0.0,93,0.00,,,0.00,0,Wunderground v.1.15,2013-06-11 08:20:00,
2013-06-11 04:26:00,79.6,77.4,30.06,SSE,157,0.0,0.0,93,0.00,,,0.00,0,Wunderground v.1.15,2013-06-11 08:26:00,
2013-06-11 04:32:00,79.5,77.3,30.06,SSE,157,0.0,0.0,93,0.00,,,0.00,0,Wunderground v.1.15,2013-06-11 08:32:00,
2013-06-11 04:38:00,79.4,77.2,30.06,SSE,157,0.0,0.0,93,0.00,,,0.00,0,Wunderground v.1.15,2013-06-11 08:38:00,
2013-06-11 04:44:00,79.3,77.1,30.06,SSE,157,0.0,0.0,93,0.00,,,0.00,0,Wunderground v.1.15,2013-06-11 08:44:00,
2013-06-11 04:50:00,79.1,76.9,30.07,SSE,157,0.0,0.0,93,0.00,,,0.00,0,Wunderground v.1.15,2013-06-11 08:50:00,
2013-06-11 04:56:00,79.0,76.8,30.07,SSE,157,0.0,0.0,93,0.00,,,0.00,0,Wunderground v.1.15,2013-06-11 08:56:00,
2013-06-11 05:02:00,78.8,76.6,30.07,SSE,157,0.0,0.0,93,0.00,,,0.00,0,Wunderground v.1.15,2013-06-11 09:02:00,
2013-06-11 05:04:00,78.5,76.3,30.07,N/A,-737280,0.0,-999.0,93,0.00,,,0.00,0,Wunderground v.1.15,2013-06-11 09:04:00,
2013-06-11 05:08:00,78.6,76.4,30.07,SSE,157,0.0,0.0,93,0.00,,,0.00,0,Wunderground v.1.15,2013-06-11 09:08:00,
2013-06-11 05:09:00,78.4,76.2,30.07,N/A,-737280,0.0,-999.0,93,0.00,,,0.00,0,Wunderground v.1.15,2013-06-11 09:09:00,
2013-06-11 05:14:00,78.5,76.3,30.07,SSE,157,0.0,0.0,93,0.00,,,0.00,0,Wunderground v.1.15,2013-06-11 09:14:00,
2013-06-11 05:19:00,78.2,76.0,30.07,N/A,-737280,0.0,-999.0,93,0.00,,,0.00,0,Wunderground v.1.15,2013-06-11 09:19:00,
2013-06-11 05:20:00,78.3,76.1,30.07,SSE,157,0.0,0.0,93,0.00,,,0.00,0,Wunderground v.1.15,2013-06-11 09:20:00,
2013-06-11 05:24:00,78.1,75.9,30.07,N/A,-737280,0.0,-999.0,93,0.00,,,0.00,0,Wunderground v.1.15,2013-06-11 09:24:00,
2013-06-11 05:26:00,78.2,76.0,30.07,SSE,157,0.0,0.0,93,0.00,,,0.00,0,Wunderground v.1.15,2013-06-11 09:26:00,
2013-06-11 05:29:00,77.9,75.7,30.07,N/A,-737280,0.0,-999.0,93,0.00,,,0.00,0,Wunderground v.1.15,2013-06-11 09:29:00,
2013-06-11 05:38:00,77.9,75.7,30.07,SSE,157,0.0,0.0,93,0.00,,,0.00,0,Wunderground v.1.15,2013-06-11 09:38:00,
2013-06-11 05:44:00,77.8,75.9,30.07,SSE,157,0.0,0.0,94,0.00,,,0.00,0,Wunderground v.1.15,2013-06-11 09:44:00,
2013-06-11 05:50:00,77.7,75.8,30.07,SSE,157,0.0,0.0,94,0.00,,,0.00,0,Wunderground v.1.15,2013-06-11 09:50:00,
2013-06-11 05:56:00,77.6,75.7,30.07,SSE,157,0.0,0.0,94,0.00,,,0.00,0,Wunderground v.1.15,2013-06-11 09:56:00,
2013-06-11 06:02:00,77.4,75.5,30.07,SSE,157,0.0,0.0,94,0.00,,,0.00,0,Wunderground v.1.15,2013-06-11 10:02:00,
2013-06-11 06:08:00,77.4,75.5,30.07,SSE,157,0.0,0.0,94,0.00,,,0.00,0,Wunderground v.1.15,2013-06-11 10:08:00,
2013-06-11 06:14:00,77.3,75.4,30.07,SSE,157,0.0,0.0,94,0.00,,,0.00,0,Wunderground v.1.15,2013-06-11 10:14:00,
2013-06-11 06:20:00,77.1,75.2,30.07,SSE,157,0.0,0.0,94,0.00,,,0.00,0,Wunderground v.1.15,2013-06-11 10:20:00,
2013-06-11 06:26:00,77.1,75.2,30.08,SSE,157,0.0,0.0,94,0.00,,,0.00,0,Wunderground v.1.15,2013-06-11 10:26:00,
2013-06-11 06:32:00,77.0,75.1,30.08,SSE,157,0.0,0.0,94,0.00,,,0.00,9,Wunderground v.1.15,2013-06-11 10:32:00,
2013-06-11 06:38:00,77.0,75.5,30.08,SSE,157,0.0,0.0,95,0.00,,,0.00,12,Wunderground v.1.15,2013-06-11 10:38:00,
2013-06-11 06:44:00,76.9,75.4,30.08,SSE,157,0.0,0.0,95,0.00,,,0.00,18,Wunderground v.1.15,2013-06-11 10:44:00,
2013-06-11 06:50:00,76.9,75.4,30.08,SSE,157,0.0,0.0,95,0.00,,,0.00,26,Wunderground v.1.15,2013-06-11 10:50:00,
2013-06-11 06:56:00,76.9,75.4,30.08,SSE,157,0.0,0.0,95,0.00,,,0.00,39,Wunderground v.1.15,2013-06-11 10:56:00,
2013-06-11 07:02:00,77.0,75.5,30.08,SSE,157,0.0,0.0,95,0.00,,,0.00,53,Wunderground v.1.15,2013-06-11 11:02:00,
2013-06-11 07:08:00,77.2,76.0,30.08,SSE,157,0.0,0.0,96,0.00,,,0.00,79,Wunderground v.1.15,2013-06-11 11:08:00,
2013-06-11 07:14:00,77.4,76.2,30.08,SSE,157,0.0,0.0,96,0.00,,,0.00,88,Wunderground v.1.15,2013-06-11 11:14:00,
2013-06-11 07:20:00,77.7,76.5,30.08,SSE,157,0.0,0.0,96,0.00,,,0.00,100,Wunderground v.1.15,2013-06-11 11:20:00,
2013-06-11 07:26:00,77.9,76.7,30.08,SSE,157,0.0,0.0,96,0.00,,,0.00,132,Wunderground v.1.15,2013-06-11 11:26:00,
2013-06-11 07:32:00,78.2,77.0,30.08,SSE,157,0.0,0.0,96,0.00,,,0.00,137,Wunderground v.1.15,2013-06-11 11:32:00,
2013-06-11 07:38:00,78.4,77.2,30.08,SSE,157,0.0,0.0,96,0.00,,,0.00,181,Wunderground v.1.15,2013-06-11 11:38:00,
2013-06-11 07:44:00,78.8,77.6,30.09,SSE,157,0.0,0.0,96,0.00,,,0.00,209,Wunderground v.1.15,2013-06-11 11:44:00,
2013-06-11 07:50:00,79.0,77.8,30.09,SSE,157,0.0,0.0,96,0.00,,,0.00,213,Wunderground v.1.15,2013-06-11 11:50:00,
2013-06-11 07:56:00,79.3,77.7,30.09,SSE,157,0.0,0.0,95,0.00,,,0.00,221,Wunderground v.1.15,2013-06-11 11:56:00,
2013-06-11 08:02:00,79.7,78.1,30.09,SSE,157,0.0,0.0,95,0.00,,,0.00,207,Wunderground v.1.15,2013-06-11 12:02:00,
2013-06-11 08:08:00,80.0,78.1,30.09,SSE,161,1.0,4.0,94,0.00,,,0.00,285,Wunderground v.1.15,2013-06-11 12:08:00,
2013-06-11 08:14:00,80.6,78.1,30.09,SSE,167,0.0,1.0,92,0.00,,,0.00,316,Wunderground v.1.15,2013-06-11 12:14:00,
2013-06-11 08:20:00,80.9,77.7,30.09,South,169,1.0,1.0,90,0.00,,,0.00,287,Wunderground v.1.15,2013-06-11 12:20:00,
2013-06-11 08:26:00,81.3,77.7,30.09,South,169,1.0,1.0,89,0.00,,,0.00,281,Wunderground v.1.15,2013-06-11 12:26:00,
2013-06-11 08:32:00,81.6,77.7,30.09,SSW,196,1.0,3.0,88,0.00,,,0.00,216,Wunderground v.1.15,2013-06-11 12:32:00,
2013-06-11 08:38:00,82.0,77.4,30.09,South,180,2.0,3.0,86,0.00,,,0.00,394,Wunderground v.1.15,2013-06-11 12:38:00,
2013-06-11 08:44:00,82.4,77.8,30.10,SSE,166,1.0,6.0,86,0.00,,,0.00,406,Wunderground v.1.15,2013-06-11 12:44:00,
2013-06-11 08:50:00,83.0,78.0,30.10,SE,134,1.0,1.0,85,0.00,,,0.00,519,Wunderground v.1.15,2013-06-11 12:50:00,
2013-06-11 08:56:00,83.6,78.2,30.10,SSW,210,1.0,1.0,84,0.00,,,0.00,559,Wunderground v.1.15,2013-06-11 12:56:00,
2013-06-11 09:02:00,83.9,77.4,30.10,SW,220,1.0,2.0,81,0.00,,,0.00,519,Wunderground v.1.15,2013-06-11 13:02:00,
2013-06-11 09:08:00,84.1,77.6,30.10,SSW,203,1.0,2.0,81,0.00,,,0.00,204,Wunderground v.1.15,2013-06-11 13:08:00,
2013-06-11 09:14:00,84.1,76.9,30.10,SSW,201,0.0,4.0,79,0.00,,,0.00,464,Wunderground v.1.15,2013-06-11 13:14:00,
2013-06-11 09:20:00,84.2,77.4,30.10,South,186,1.0,1.0,80,0.00,,,0.00,439,Wunderground v.1.15,2013-06-11 13:20:00,
2013-06-11 09:26:00,84.6,77.7,30.10,South,186,0.0,1.0,80,0.00,,,0.00,577,Wunderground v.1.15,2013-06-11 13:26:00,
2013-06-11 09:32:00,84.9,77.3,30.10,SSW,202,0.0,0.0,78,0.00,,,0.00,404,Wunderground v.1.15,2013-06-11 13:32:00,
2013-06-11 09:38:00,85.0,76.6,30.10,SSW,198,0.0,0.0,76,0.00,,,0.00,253,Wunderground v.1.15,2013-06-11 13:38:00,
2013-06-11 09:44:00,84.8,76.4,30.10,SSW,198,0.0,0.0,76,0.00,,,0.00,225,Wunderground v.1.15,2013-06-11 13:44:00,
2013-06-11 09:50:00,84.7,76.3,30.09,SSW,198,0.0,0.0,76,0.00,,,0.00,424,Wunderground v.1.15,2013-06-11 13:50:00,
2013-06-11 09:56:00,84.8,76.4,30.09,SSW,201,0.0,0.0,76,0.00,,,0.00,287,Wunderground v.1.15,2013-06-11 13:56:00,
2013-06-11 10:02:00,85.2,77.2,30.09,SSW,201,0.0,0.0,77,0.00,,,0.00,334,Wunderground v.1.15,2013-06-11 14:02:00,
2013-06-11 10:08:00,85.6,76.8,30.10,SSW,202,0.0,0.0,75,0.00,,,0.00,622,Wunderground v.1.15,2013-06-11 14:08:00,
2013-06-11 10:14:00,85.6,75.5,30.09,SSW,198,1.0,5.0,72,0.00,,,0.00,243,Wunderground v.1.15,2013-06-11 14:14:00,
2013-06-11 10:20:00,85.5,75.4,30.09,SSW,198,1.0,1.0,72,0.00,,,0.00,626,Wunderground v.1.15,2013-06-11 14:20:00,
2013-06-11 10:26:00,85.9,76.6,30.09,SSW,195,0.0,4.0,74,0.00,,,0.00,606,Wunderground v.1.15,2013-06-11 14:26:00,
2013-06-11 10:32:00,86.1,75.6,30.09,SSE,157,1.0,3.0,71,0.00,,,0.00,257,Wunderground v.1.15,2013-06-11 14:32:00,
2013-06-11 10:38:00,86.4,76.7,30.09,South,173,0.0,3.0,73,0.00,,,0.00,805,Wunderground v.1.15,2013-06-11 14:38:00,
2013-06-11 10:44:00,87.2,77.5,30.09,South,173,0.0,0.0,73,0.00,,,0.00,415,Wunderground v.1.15,2013-06-11 14:44:00,
2013-06-11 10:50:00,87.8,77.2,30.10,South,173,0.0,0.0,71,0.00,,,0.00,745,Wunderground v.1.15,2013-06-11 14:50:00,
2013-06-11 10:56:00,87.5,77.4,30.10,South,173,0.0,0.0,72,0.00,,,0.00,735,Wunderground v.1.15,2013-06-11 14:56:00,
2013-06-11 11:02:00,86.8,77.9,30.10,SSE,165,0.0,0.0,75,0.00,,,0.00,854,Wunderground v.1.15,2013-06-11 15:02:00,
2013-06-11 11:08:00,86.7,78.2,30.10,SSE,165,0.0,0.0,76,0.00,,,0.00,830,Wunderground v.1.15,2013-06-11 15:08:00,
2013-06-11 11:14:00,86.4,78.3,30.10,East,100,0.0,1.0,77,0.00,,,0.00,394,Wunderground v.1.15,2013-06-11 15:14:00,
2013-06-11 11:20:00,85.7,77.7,30.10,ENE,78,1.0,1.0,77,0.00,,,0.00,659,Wunderground v.1.15,2013-06-11 15:20:00,
2013-06-11 11:26:00,85.8,78.5,30.10,ENE,68,1.0,1.0,79,0.00,,,0.00,617,Wunderground v.1.15,2013-06-11 15:26:00,
2013-06-11 11:32:00,85.6,78.3,30.11,ENE,67,0.0,0.0,79,0.00,,,0.00,666,Wunderground v.1.15,2013-06-11 15:32:00,
2013-06-11 11:38:00,85.7,78.8,30.11,ENE,78,1.0,1.0,80,0.00,,,0.00,807,Wunderground v.1.15,2013-06-11 15:38:00,
2013-06-11 11:44:00,85.6,78.7,30.11,ENE,77,2.0,3.0,80,0.00,,,0.00,789,Wunderground v.1.15,2013-06-11 15:44:00,
2013-06-11 11:50:00,85.5,78.2,30.11,East,81,2.0,6.0,79,0.00,,,0.00,759,Wunderground v.1.15,2013-06-11 15:50:00,
2013-06-11 11:56:00,85.6,79.1,30.10,East,94,2.0,6.0,81,0.00,,,0.00,791,Wunderground v.1.15,2013-06-11 15:56:00,
2013-06-11 12:02:00,85.5,78.2,30.10,ESE,106,2.0,5.0,79,0.00,,,0.00,666,Wunderground v.1.15,2013-06-11 16:02:00,
2013-06-11 12:08:00,85.4,78.5,30.10,ESE,116,2.0,5.0,80,0.00,,,0.00,742,Wunderground v.1.15,2013-06-11 16:08:00,
2013-06-11 12:14:00,85.7,78.4,30.10,East,88,1.0,3.0,79,0.00,,,0.00,745,Wunderground v.1.15,2013-06-11 16:14:00,
2013-06-11 12:20:00,85.9,78.6,30.11,East,89,1.0,7.0,79,0.00,,,0.00,745,Wunderground v.1.15,2013-06-11 16:20:00,
2013-06-11 12:26:00,85.7,78.0,30.10,ESE,103,3.0,7.0,78,0.00,,,0.00,735,Wunderground v.1.15,2013-06-11 16:26:00,
2013-06-11 12:32:00,85.4,78.1,30.10,ENE,70,3.0,3.0,79,0.00,,,0.00,858,Wunderground v.1.15,2013-06-11 16:32:00,
2013-06-11 12:38:00,85.6,78.3,30.10,ENE,76,2.0,3.0,79,0.00,,,0.00,814,Wunderground v.1.15,2013-06-11 16:38:00,
2013-06-11 12:44:00,85.4,77.8,30.10,East,98,2.0,5.0,78,0.00,,,0.00,805,Wunderground v.1.15,2013-06-11 16:44:00,
2013-06-11 12:50:00,85.5,77.5,30.10,ENE,74,3.0,3.0,77,0.00,,,0.00,779,Wunderground v.1.15,2013-06-11 16:50:00,
2013-06-11 12:56:00,84.8,77.2,30.10,ESE,111,5.0,7.0,78,0.00,,,0.00,345,Wunderground v.1.15,2013-06-11 16:56:00,
2013-06-11 13:02:00,84.3,77.5,30.10,SE,128,4.0,5.0,80,0.00,,,0.00,185,Wunderground v.1.15,2013-06-11 17:02:00,
2013-06-11 13:08:00,83.9,77.8,30.11,East,97,3.0,5.0,82,0.00,,,0.00,134,Wunderground v.1.15,2013-06-11 17:08:00,
2013-06-11 13:14:00,83.7,77.2,30.10,SE,130,1.0,4.0,81,0.00,,,0.00,141,Wunderground v.1.15,2013-06-11 17:14:00,
2013-06-11 13:20:00,83.4,77.7,30.10,SE,135,2.0,2.0,83,0.00,,,0.00,171,Wunderground v.1.15,2013-06-11 17:20:00,
2013-06-11 13:26:00,82.9,77.6,30.10,SE,136,1.0,6.0,84,0.35,,,0.03,360,Wunderground v.1.15,2013-06-11 17:26:00,
2013-06-11 13:32:00,82.7,78.8,30.09,SE,130,2.0,2.0,88,0.10,,,0.04,499,Wunderground v.1.15,2013-06-11 17:32:00,
2013-06-11 13:38:00,82.8,78.5,30.10,SE,134,4.0,8.0,87,0.05,,,0.04,1127,Wunderground v.1.15,2013-06-11 17:38:00,
2013-06-11 13:44:00,83.0,79.4,30.09,SSE,154,5.0,8.0,89,0.00,,,0.04,1125,Wunderground v.1.15,2013-06-11 17:44:00,
2013-06-11 13:50:00,83.2,78.9,30.09,ESE,120,4.0,4.0,87,0.00,,,0.04,543,Wunderground v.1.15,2013-06-11 17:50:00,
2013-06-11 13:56:00,82.9,78.6,30.09,ESE,112,4.0,4.0,87,0.00,,,0.04,425,Wunderground v.1.15,2013-06-11 17:56:00,
2013-06-11 14:02:00,82.7,78.4,30.09,SE,136,4.0,10.0,87,0.00,,,0.04,466,Wunderground v.1.15,2013-06-11 18:02:00,
2013-06-11 14:08:00,82.8,78.9,30.08,ESE,103,5.0,10.0,88,0.00,,,0.04,780,Wunderground v.1.15,2013-06-11 18:08:00,
2013-06-11 14:14:00,83.0,79.1,30.08,SSE,147,4.0,7.0,88,0.00,,,0.04,1111,Wunderground v.1.15,2013-06-11 18:14:00,
2013-06-11 14:20:00,83.5,78.9,30.08,SE,126,5.0,5.0,86,0.00,,,0.04,432,Wunderground v.1.15,2013-06-11 18:20:00,
2013-06-11 14:26:00,83.4,78.4,30.08,ESE,111,4.0,5.0,85,0.00,,,0.04,388,Wunderground v.1.15,2013-06-11 18:26:00,
2013-06-11 14:32:00,83.2,78.2,30.08,ESE,121,3.0,7.0,85,0.00,,,0.04,543,Wunderground v.1.15,2013-06-11 18:32:00,
2013-06-11 14:38:00,83.3,78.0,30.08,SSE,149,5.0,9.0,84,0.00,,,0.04,895,Wunderground v.1.15,2013-06-11 18:38:00,
2013-06-11 14:44:00,83.8,77.7,30.08,ESE,119,7.0,7.0,82,0.00,,,0.04,1058,Wunderground v.1.15,2013-06-11 18:44:00,
2013-06-11 14:50:00,84.3,77.8,30.08,SE,146,7.0,7.0,81,0.00,,,0.04,540,Wunderground v.1.15,2013-06-11 18:50:00,
2013-06-11 14:56:00,84.5,78.0,30.08,SE,131,6.0,12.0,81,0.00,,,0.04,661,Wunderground v.1.15,2013-06-11 18:56:00,
2013-06-11 15:02:00,84.3,77.5,30.07,SE,146,7.0,11.0,80,0.00,,,0.04,596,Wunderground v.1.15,2013-06-11 19:02:00,
2013-06-11 15:08:00,84.4,77.9,30.07,ESE,119,7.0,11.0,81,0.00,,,0.04,512,Wunderground v.1.15,2013-06-11 19:08:00,
2013-06-11 15:14:00,84.5,78.0,30.07,SSE,150,6.0,12.0,81,0.00,,,0.04,429,Wunderground v.1.15,2013-06-11 19:14:00,
2013-06-11 15:20:00,84.7,77.8,30.07,SE,140,5.0,7.0,80,0.00,,,0.04,696,Wunderground v.1.15,2013-06-11 19:20:00,
2013-06-11 15:26:00,84.7,77.8,30.07,SE,126,6.0,11.0,80,0.00,,,0.04,431,Wunderground v.1.15,2013-06-11 19:26:00,
2013-06-11 15:32:00,84.5,77.6,30.07,ESE,120,6.0,6.0,80,0.00,,,0.04,406,Wunderground v.1.15,2013-06-11 19:32:00,
2013-06-11 15:38:00,84.6,78.5,30.07,East,101,4.0,10.0,82,0.00,,,0.04,469,Wunderground v.1.15,2013-06-11 19:38:00,
2013-06-11 15:44:00,84.5,78.0,30.06,SE,124,4.0,5.0,81,0.00,,,0.04,381,Wunderground v.1.15,2013-06-11 19:44:00,
2013-06-11 15:50:00,84.5,78.4,30.06,SE,126,4.0,11.0,82,0.00,,,0.04,313,Wunderground v.1.15,2013-06-11 19:50:00,
2013-06-11 15:56:00,84.3,77.8,30.06,East,91,4.0,11.0,81,0.00,,,0.04,325,Wunderground v.1.15,2013-06-11 19:56:00,
2013-06-11 16:02:00,84.3,78.2,30.06,ESE,107,3.0,4.0,82,0.00,,,0.04,336,Wunderground v.1.15,2013-06-11 20:02:00,
2013-06-11 16:08:00,84.2,78.1,30.05,ESE,109,4.0,9.0,82,0.00,,,0.04,308,Wunderground v.1.15,2013-06-11 20:08:00,
2013-06-11 16:14:00,84.1,78.0,30.05,ESE,123,5.0,5.0,82,0.00,,,0.04,281,Wunderground v.1.15,2013-06-11 20:14:00,
2013-06-11 16:20:00,84.0,78.3,30.06,ESE,117,3.0,3.0,83,0.00,,,0.04,232,Wunderground v.1.15,2013-06-11 20:20:00,
2013-06-11 16:26:00,84.0,78.3,30.07,East,84,1.0,3.0,83,0.00,,,0.04,127,Wunderground v.1.15,2013-06-11 20:26:00,
2013-06-11 16:32:00,83.8,78.1,30.07,East,85,0.0,0.0,83,0.00,,,0.04,132,Wunderground v.1.15,2013-06-11 20:32:00,
2013-06-11 16:38:00,83.5,78.2,30.06,East,87,0.0,0.0,84,0.00,,,0.04,139,Wunderground v.1.15,2013-06-11 20:38:00,
2013-06-11 16:44:00,83.3,78.0,30.06,East,88,0.0,0.0,84,0.00,,,0.04,97,Wunderground v.1.15,2013-06-11 20:44:00,
2013-06-11 16:50:00,83.1,77.8,30.06,East,88,0.0,0.0,84,0.00,,,0.04,83,Wunderground v.1.15,2013-06-11 20:50:00,
2013-06-11 16:56:00,82.9,77.9,30.06,East,88,0.0,0.0,85,0.00,,,0.04,81,Wunderground v.1.15,2013-06-11 20:56:00,
2013-06-11 17:02:00,82.7,77.7,30.06,East,88,0.0,0.0,85,0.00,,,0.04,67,Wunderground v.1.15,2013-06-11 21:02:00,
2013-06-11 17:08:00,82.5,77.5,30.06,East,88,0.0,0.0,85,0.00,,,0.04,53,Wunderground v.1.15,2013-06-11 21:08:00,
2013-06-11 17:14:00,82.3,77.7,30.07,East,88,0.0,0.0,86,0.00,,,0.04,39,Wunderground v.1.15,2013-06-11 21:14:00,
2013-06-11 17:20:00,82.3,77.7,30.08,East,88,0.0,0.0,86,0.00,,,0.04,23,Wunderground v.1.15,2013-06-11 21:20:00,
2013-06-11 17:26:00,82.3,77.7,30.08,East,88,0.0,0.0,86,0.00,,,0.04,25,Wunderground v.1.15,2013-06-11 21:26:00,
2013-06-11 17:32:00,82.0,76.0,30.08,WNW,296,2.0,6.0,82,0.00,,,0.04,5,Wunderground v.1.15,2013-06-11 21:32:00,
2013-06-11 17:38:00,81.5,75.1,30.08,WNW,301,7.0,10.0,81,0.00,,,0.04,11,Wunderground v.1.15,2013-06-11 21:38:00,
2013-06-11 17:44:00,80.9,73.8,30.07,West,267,6.0,7.0,79,0.00,,,0.04,12,Wunderground v.1.15,2013-06-11 21:44:00,
2013-06-11 17:50:00,80.5,72.2,30.08,NW,305,3.0,6.0,76,0.00,,,0.04,11,Wunderground v.1.15,2013-06-11 21:50:00,
2013-06-11 17:56:00,80.0,71.4,30.08,WNW,294,4.0,6.0,75,0.00,,,0.04,9,Wunderground v.1.15,2013-06-11 21:56:00,
2013-06-11 18:02:00,79.8,71.2,30.08,NW,304,2.0,5.0,75,0.00,,,0.04,9,Wunderground v.1.15,2013-06-11 22:02:00,
2013-06-11 18:08:00,79.5,70.1,30.08,NNW,335,3.0,8.0,73,0.00,,,0.04,9,Wunderground v.1.15,2013-06-11 22:08:00,
2013-06-11 18:14:00,79.0,69.6,30.07,WNW,298,4.0,5.0,73,0.00,,,0.04,9,Wunderground v.1.15,2013-06-11 22:14:00,
2013-06-11 18:20:00,78.6,69.6,30.06,NW,304,2.0,2.0,74,0.00,,,0.04,9,Wunderground v.1.15,2013-06-11 22:20:00,
2013-06-11 18:26:00,78.2,69.2,30.05,NW,304,1.0,3.0,74,0.00,,,0.04,9,Wunderground v.1.15,2013-06-11 22:26:00,
2013-06-11 18:32:00,77.8,68.4,30.04,WNW,298,0.0,1.0,73,0.00,,,0.04,9,Wunderground v.1.15,2013-06-11 22:32:00,
2013-06-11 18:38:00,77.6,69.0,30.04,WNW,298,0.0,1.0,75,0.00,,,0.04,9,Wunderground v.1.15,2013-06-11 22:38:00,
2013-06-11 18:44:00,77.2,69.4,30.04,NW,310,0.0,0.0,77,0.00,,,0.04,9,Wunderground v.1.15,2013-06-11 22:44:00,
2013-06-11 18:50:00,76.8,69.0,30.06,NW,311,0.0,0.0,77,0.00,,,0.04,9,Wunderground v.1.15,2013-06-11 22:50:00,
2013-06-11 18:56:00,76.4,69.4,30.06,NW,312,0.0,0.0,79,0.00,,,0.04,11,Wunderground v.1.15,2013-06-11 22:56:00,
2013-06-11 19:02:00,76.2,69.9,30.06,NW,312,0.0,0.0,81,0.00,,,0.04,11,Wunderground v.1.15,2013-06-11 23:02:00,
2013-06-11 19:08:00,76.0,70.8,30.06,NW,312,0.0,0.0,84,0.00,,,0.05,7,Wunderground v.1.15,2013-06-11 23:08:00,
2013-06-11 19:14:00,76.0,71.8,30.06,NW,315,0.0,0.0,87,0.00,,,0.05,5,Wunderground v.1.15,2013-06-11 23:14:00,
2013-06-11 19:20:00,75.8,71.7,30.06,ENE,58,0.0,0.0,87,0.04,,,0.06,9,Wunderground v.1.15,2013-06-11 23:20:00,
2013-06-11 19:26:00,75.8,72.3,30.06,ENE,59,0.0,0.0,89,0.04,,,0.06,9,Wunderground v.1.15,2013-06-11 23:26:00,
2013-06-11 19:32:00,75.9,72.8,30.06,SE,135,0.0,0.0,90,0.04,,,0.06,11,Wunderground v.1.15,2013-06-11 23:32:00,
2013-06-11 19:38:00,76.1,73.3,30.06,SE,133,0.0,0.0,91,0.00,,,0.06,11,Wunderground v.1.15,2013-06-11 23:38:00,
2013-06-11 19:44:00,76.6,74.4,30.06,ESE,117,1.0,7.0,93,0.00,,,0.06,11,Wunderground v.1.15,2013-06-11 23:44:00,
2013-06-11 19:50:00,77.1,74.9,30.04,SE,135,3.0,6.0,93,0.00,,,0.06,9,Wunderground v.1.15,2013-06-11 23:50:00,
2013-06-11 19:56:00,77.6,75.4,30.04,SE,130,4.0,10.0,93,0.00,,,0.06,7,Wunderground v.1.15,2013-06-11 23:56:00,
2013-06-11 20:02:00,77.9,75.7,30.04,SE,127,5.0,9.0,93,0.00,,,0.06,5,Wunderground v.1.15,2013-06-12 00:02:00,
2013-06-11 20:08:00,78.3,76.1,30.04,SE,124,3.0,9.0,93,0.00,,,0.06,0,Wunderground v.1.15,2013-06-12 00:08:00,
2013-06-11 20:14:00,78.6,76.4,30.04,SE,142,2.0,3.0,93,0.00,,,0.06,0,Wunderground v.1.15,2013-06-12 00:14:00,
2013-06-11 20:20:00,78.8,76.6,30.04,SE,140,1.0,2.0,93,0.00,,,0.06,0,Wunderground v.1.15,2013-06-12 00:20:00,
2013-06-11 20:26:00,78.9,76.4,30.04,ESE,121,1.0,2.0,92,0.00,,,0.06,0,Wunderground v.1.15,2013-06-12 00:26:00,
2013-06-11 20:32:00,79.1,76.6,30.04,SSE,155,1.0,3.0,92,0.00,,,0.06,0,Wunderground v.1.15,2013-06-12 00:32:00,
2013-06-11 20:38:00,79.1,76.6,30.04,SW,217,1.0,3.0,92,0.00,,,0.06,0,Wunderground v.1.15,2013-06-12 00:38:00,
2013-06-11 20:44:00,78.6,75.8,30.04,SW,217,1.0,1.0,91,0.00,,,0.06,0,Wunderground v.1.15,2013-06-12 00:44:00,
2013-06-11 20:50:00,78.2,75.4,30.04,NW,305,0.0,0.0,91,0.00,,,0.06,0,Wunderground v.1.15,2013-06-12 00:50:00,
2013-06-11 20:56:00,77.7,74.9,30.04,West,265,0.0,0.0,91,0.00,,,0.06,0,Wunderground v.1.15,2013-06-12 00:56:00,
2013-06-11 21:02:00,77.4,74.6,30.04,West,268,0.0,0.0,91,0.00,,,0.06,0,Wunderground v.1.15,2013-06-12 01:02:00,
2013-06-11 21:08:00,77.1,74.3,30.04,West,268,0.0,0.0,91,0.00,,,0.06,0,Wunderground v.1.15,2013-06-12 01:08:00,
2013-06-11 21:14:00,77.0,74.5,30.04,West,268,0.0,0.0,92,0.00,,,0.06,0,Wunderground v.1.15,2013-06-12 01:14:00,
2013-06-11 21:20:00,76.8,74.3,30.04,West,268,0.0,0.0,92,0.00,,,0.06,0,Wunderground v.1.15,2013-06-12 01:20:00,
2013-06-11 21:26:00,76.7,74.5,30.04,West,268,0.0,0.0,93,0.00,,,0.06,0,Wunderground v.1.15,2013-06-12 01:26:00,
2013-06-11 21:32:00,76.7,74.5,30.04,West,268,0.0,0.0,93,0.00,,,0.06,0,Wunderground v.1.15,2013-06-12 01:32:00,
2013-06-11 21:38:00,76.6,74.4,30.05,West,268,0.0,0.0,93,0.00,,,0.06,0,Wunderground v.1.15,2013-06-12 01:38:00,
2013-06-11 21:44:00,76.6,74.7,30.05,WNW,283,0.0,0.0,94,0.00,,,0.06,0,Wunderground v.1.15,2013-06-12 01:44:00,
2013-06-11 21:50:00,76.6,74.7,30.05,WNW,301,1.0,1.0,94,0.00,,,0.06,0,Wunderground v.1.15,2013-06-12 01:50:00,
2013-06-11 21:56:00,76.4,74.5,30.06,WNW,301,0.0,1.0,94,0.00,,,0.06,0,Wunderground v.1.15,2013-06-12 01:56:00,
2013-06-11 22:02:00,76.2,74.0,30.06,West,266,1.0,5.0,93,0.00,,,0.06,0,Wunderground v.1.15,2013-06-12 02:02:00,
2013-06-11 22:08:00,75.7,73.5,30.06,West,265,1.0,5.0,93,0.00,,,0.06,0,Wunderground v.1.15,2013-06-12 02:08:00,
2013-06-11 22:14:00,75.2,72.7,30.05,SW,223,1.0,2.0,92,0.00,,,0.06,0,Wunderground v.1.15,2013-06-12 02:14:00,
2013-06-11 22:20:00,74.9,72.7,30.05,SW,214,0.0,0.0,93,0.00,,,0.06,0,Wunderground v.1.15,2013-06-12 02:20:00,
2013-06-11 22:26:00,74.9,72.7,30.06,WSW,241,0.0,1.0,93,0.00,,,0.06,0,Wunderground v.1.15,2013-06-12 02:26:00,
2013-06-11 22:32:00,74.8,72.6,30.07,WSW,241,0.0,0.0,93,0.00,,,0.06,0,Wunderground v.1.15,2013-06-12 02:32:00,
2013-06-11 22:38:00,74.7,72.5,30.07,WSW,241,0.0,0.0,93,0.00,,,0.06,0,Wunderground v.1.15,2013-06-12 02:38:00,
2013-06-11 22:44:00,74.5,72.3,30.07,WSW,240,0.0,0.0,93,0.00,,,0.06,0,Wunderground v.1.15,2013-06-12 02:44:00,
2013-06-11 22:50:00,74.3,72.1,30.07,WSW,240,0.0,0.0,93,0.00,,,0.06,0,Wunderground v.1.15,2013-06-12 02:50:00,
2013-06-11 22:56:00,74.2,72.0,30.07,WSW,240,0.0,0.0,93,0.00,,,0.06,0,Wunderground v.1.15,2013-06-12 02:56:00,
2013-06-11 23:02:00,74.0,71.8,30.07,WSW,240,0.0,0.0,93,0.00,,,0.06,0,Wunderground v.1.15,2013-06-12 03:02:00,
2013-06-11 23:08:00,73.9,71.7,30.07,WSW,240,0.0,0.0,93,0.00,,,0.06,0,Wunderground v.1.15,2013-06-12 03:08:00,
2013-06-11 23:14:00,73.8,71.6,30.08,WSW,240,0.0,0.0,93,0.00,,,0.06,0,Wunderground v.1.15,2013-06-12 03:14:00,
2013-06-11 23:20:00,73.7,71.5,30.07,WSW,240,0.0,0.0,93,0.00,,,0.06,0,Wunderground v.1.15,2013-06-12 03:20:00,
2013-06-11 23:26:00,73.7,71.5,30.08,WSW,240,0.0,0.0,93,0.00,,,0.06,0,Wunderground v.1.15,2013-06-12 03:26:00,
2013-06-11 23:32:00,73.7,71.5,30.08,WSW,240,0.0,0.0,93,0.00,,,0.06,0,Wunderground v.1.15,2013-06-12 03:32:00,
2013-06-11 23:38:00,73.7,71.5,30.08,WSW,240,0.0,0.0,93,0.00,,,0.06,0,Wunderground v.1.15,2013-06-12 03:38:00,
2013-06-11 23:44:00,73.7,71.5,30.08,WSW,240,0.0,0.0,93,0.00,,,0.06,0,Wunderground v.1.15,2013-06-12 03:44:00,
2013-06-11 23:50:00,73.8,71.6,30.08,WSW,240,0.0,0.0,93,0.00,,,0.06,0,Wunderground v.1.15,2013-06-12 03:50:00,
2013-06-11 23:56:00,73.8,71.6,30.08,WSW,240,0.0,0.0,93,0.00,,,0.06,0,Wunderground v.1.15,2013-06-12 03:56:00,